Weather in Viesite

Latvia     56°20′41″N   25°33′11″E
temp.,
°C
wind,
m/s
gust,
m/s
humid.,
%
clouds,
%
prec.,
mm/h
press.,
hPa
HPBL,
m
22 may, sun
sun2200:00+9ene3798100 2.1 1003458
03:00+9ne4997100 2.4 1004511
06:00+8ne4129579 0.0 1005464
09:00+10ne478099 0.0 1007477
12:00+15ene4647100 0.0 10081608
15:00+16ne3440100 0.0 10082233
18:00+16ne3443100 0.0 10092092
21:00+11ene2568100 0.0 1010115
23 may, mon
mon2300:00+7ne1175100 0.0 101114
03:00+6ne2268100 0.0 101324
06:00+5nne2371100 0.0 101375
09:00+10ne2355100 0.0 1014403
12:00+15ne233222 0.0 10141234
15:00+18nne123170 0.0 10131808
18:00+17ne22365 0.0 10121775
21:00+11s11633 0.0 101311
24 may, tue
tue2400:00+8w22770 0.0 101412
03:00+7w11760 0.0 101410
06:00+7sw11730 0.0 101510
09:00+14sw12500 0.0 1014382
12:00+18ssw23392 0.0 10141703
15:00+20sw33385 0.0 10131951
18:00+19sw23436 0.0 10131885
21:00+14ssw127181 0.0 101313
25 may, wed
wed2500:00+11s227570 0.0 101423
03:00+9s248422 0.0 101470
06:00+9s248297 0.0 101490
09:00+12s2680100 0.1 1015238
12:00+12sse2885100 0.1 1014302
15:00+15s3666100 0.1 1013582
18:00+16sse3566100 0.0 1011598
21:00+14ese388292 0.0 1009255
26 may, thu
thu2600:00+13sse31090100 0.2 1006450
03:00+10wnw51296100 4.4 1007713
06:00+9w4119670 0.4 1007702
09:00+12wsw5118774 0.4 1006880
12:00+15w61068100 0.9 10061437
15:00+15w6107573 2.6 10061608
18:00+14w5108415 1.4 10061268
21:00+11w5119315 2.2 1007782